Location: Cerreto Alpi
(44.3167°N, 10.2500°E)
Time: 21:17:13
(UTC+00:00)

Daily predictions for brighter satellites

Satellite Brightness Start Highest point End
(mag) Time Altitude Azimuth Time Altitude Azimuth Time Altitude Azimuth
CZ-4C R/B 2.8 18:27:18 10° SW 18:32:10 61° NW 18:38:02 10° NNE
Cosmos 2344 4.0 18:26:14 10° S 18:32:59 36° ESE 18:39:44 10° NE
Cosmos 2322 4.2 18:27:49 10° NNW 18:33:14 44° ENE 18:38:37 10° SE
Ariane Rocket 3.9 18:29:10 10° SE 18:33:31 30° ENE 18:37:52 10° N
Cosmos 1269 Rocket 4.0 18:29:13 10° SSW 18:34:30 76° ESE 18:39:50 10° NNE
Cosmos 1302 Rocket 4.1 18:29:19 10° NNW 18:34:38 73° ENE 18:39:54 10° SSE
Cosmos 2228 3.0 18:33:18 10° S 18:37:37 72° E 18:41:56 10° NNE
SL-08 RB Rocket 4.0 18:33:16 10° S 18:37:55 74° WSW 18:42:34 10° NNW
Okean-O 3.7 18:34:27 10° S 18:38:43 48° W 18:43:02 10° NNW
MetOp-A 4.2 18:34:51 10° SSE 18:40:07 63° ENE 18:45:26 10° N
ARGOS 4.0 18:35:59 10° S 18:41:14 54° W 18:46:31 10° NNW
Cosmos 482 Debris 4.3 18:38:23 10° WSW 18:41:25 45° NNW 18:43:33 10° NE
Cosmos 1408 3.3 18:39:19 10° N 18:42:33 32° ENE 18:45:47 10° SE
RESURS DK-1 3.4 18:40:21 10° SSE 18:43:44 25° ESE 18:47:09 10° NE
Cosmos 1300 3.8 18:41:22 10° SSW 18:45:04 50° WNW 18:48:48 10° N
CSL-04 Rocket 4.0 18:46:07 10° S 18:51:22 67° WSW 18:56:39 10° NNW
CENTAUR R/B 4.1 18:44:45 10° NW 18:52:41 51° WSW 19:01:12 10° S
Cosmos 2058 3.9 18:49:57 10° NNE 18:53:38 28° ENE 18:57:06 11° SE
CZ-2C R/B 3.5 18:50:29 10° N 18:55:32 54° WNW 19:00:38 10° SSW
Cosmos 1992 Rocket 4.3 18:51:51 10° N 18:56:55 48° ENE 19:01:52 10° SE
Cosmos 2058 Rocket 3.3 18:53:09 10° SSE 18:57:18 46° E 19:01:28 10° NNE
DMSP B5D2-2 4.2 18:53:00 10° NNE 18:58:16 84° WNW 19:03:32 10° SSW
Cosmos 2360 Rocket 2.8 18:53:40 10° NNW 18:59:14 60° WSW 19:04:46 10° S
ATLAS 3B R/B 3.2 18:52:47 10° NNW 18:59:35 50° NE 19:05:56 13° ESE
COSMOS 2487 2.2 18:57:52 10° SSW 19:01:14 74° ESE 19:04:38 10° NNE
Cosmos 1689 Rocket 4.5 18:59:40 10° N 19:02:08 27° WNW 19:04:34 10° SW
USA 186 1.9 18:59:09 10° S 19:02:23 73° WSW 19:05:32 10° NNW
COSMOS 2428 3.1 18:57:11 10° NNW 19:02:47 51° ENE 19:07:47 13° SE
Cosmos 1953 Rocket 3.5 18:58:55 10° N 19:03:18 83° E 19:07:38 10° S
USA 215 4.1 18:58:44 10° E 19:04:48 43° NNE 19:10:53 10° NW
SME Rocket 3.8 19:02:32 10° N 19:06:21 61° WNW 19:11:09 10° SSW
Cosmos 1092 Rocket 4.0 19:00:35 10° N 19:06:51 69° E 19:13:00 10° SSE
Cosmos 2333 4.3 19:02:04 10° NNW 19:07:53 90° WSW 19:13:36 10° SSE
Cosmos 1818 3.8 19:05:58 10° S 19:11:05 45° ESE 19:16:16 10° NE
FALCON 9 DEB 3.2 19:09:01 10° SW 19:12:20 52° SE 19:15:41 10° ENE
Cosmos 909 Rocket 4.2 19:06:47 10° S 19:12:52 47° ESE 19:18:54 10° NE
Cosmos 44 3.5 19:10:36 10° SSW 19:15:31 54° ESE 19:20:43 10° NE
ERS-2 3.7 19:12:16 10° N 19:15:41 38° WNW 19:19:05 10° SW
Resurs 01 Rocket 2.4 19:12:45 16° SE 19:15:42 35° ENE 19:19:44 10° N
Cosmos 2219 Rocket 2.2 19:10:32 10° NNW 19:16:16 75° ENE 19:21:14 14° SSE
Cosmos 1455 2.0 19:14:53 10° S 19:18:37 74° E 19:22:21 10° NNE
Resurs 1-3 3.5 19:23:14 13° SSE 19:27:04 75° ENE 19:31:29 10° N
IGS 5A 4.1 19:27:42 23° ESE 19:29:40 37° ENE 19:33:32 10° N
Cosmos 1633 4.2 19:27:14 10° NNE 19:29:49 18° ENE 19:30:05 18° ENE
Lacrosse 5 rocket 4.0 19:28:14 10° WNW 19:31:10 18° NNW 19:34:10 10° NNE
Cosmos 1356 4.1 19:28:05 10° N 19:31:17 36° ENE 19:32:13 30° ESE
ATLAS 5 CENTAUR R/B 0.9 19:30:41 10° NW 19:32:31 56° SW 19:33:14 34° SSE
Abrixas rocket 3.4 19:32:05 10° SW 19:32:30 14° SW 19:32:30 14° SW
Cosmos 405 Rocket 3.1 19:31:47 10° N 19:35:42 48° ENE 19:37:21 29° SE
Cosmos 1428 Rocket 4.5 19:30:15 10° N 19:36:32 89° E 19:42:50 10° S
Cosmos 1140 Rocket 4.4 19:38:38 25° ESE 19:39:22 26° E 19:43:33 10° NE
Cosmos 2279 Rocket 4.0 19:34:51 10° S 19:40:53 59° E 19:46:58 10° NNE
SJ-6B 4.1 19:37:26 10° SSW 19:40:53 36° W 19:44:24 10° NNW
Cosmos 2237 Rocket 2.8 19:37:39 10° NNW 19:42:59 40° ENE 19:45:36 25° ESE
Exosat Rocket 3.7 19:37:17 10° NNW 19:43:48 88° ENE 19:47:11 23° SSE
BREEZE-M DEB (TANK) 3.7 19:39:11 10° W 19:43:52 77° N 19:48:44 13° E
BREEZE-M DEB (TANK) 4.5 19:42:18 10° W 19:45:35 59° N 19:54:35 10° ENE
SL-8 R/B 3.6 19:41:50 10° WNW 19:46:41 89° SSW 19:48:58 32° ESE
CZ-2C R/B 3.9 19:44:50 10° NNE 19:49:07 44° E 19:50:38 32° SSE
OBJECT-B 2.9 19:46:40 10° SSW 19:49:22 25° W 19:52:07 10° NW
Cosmos 2026 Rocket 4.1 19:44:10 10° NNW 19:50:13 72° W 19:56:18 10° S
Terra 3.7 19:50:06 15° ENE 19:50:56 16° ENE 19:53:42 10° NNE
MetOp-B 4.2 19:52:09 29° SE 19:54:50 62° ENE 20:00:08 10° N
Cosmos 2227 Rocket 2.9 19:57:05 31° ESE 19:57:32 32° ESE 20:02:29 10° NE
SPOT 1/Viking Rocket 3.8 19:58:12 34° SE 20:00:13 53° ENE 20:05:18 10° N
Cosmos 389 Rocket 2.3 20:00:14 45° S 20:01:14 83° E 20:04:47 10° NNE
Cosmos 2251 Rocket 3.8 19:56:02 10° SSW 20:01:22 70° WNW 20:06:44 10° NNE
Cosmos 2297 Rocket 2.4 20:02:12 27° SSE 20:04:50 46° ESE 20:10:14 10° NE
Cosmos 2333 Rocket 3.4 20:01:07 10° NW 20:06:23 38° WSW 20:10:56 13° S
SPOT 3 Rocket 3.6 20:03:45 26° S 20:06:43 81° WSW 20:11:56 10° NNW
Cosmos 2219 3.4 20:05:52 35° SSE 20:07:29 44° ESE 20:12:48 10° NE
Cosmos 2266 Rocket 4.3 20:01:17 10° N 20:07:30 51° ENE 20:09:47 35° SE
Cosmos 1190 Rocket 4.4 20:07:40 40° ESE 20:08:09 41° ESE 20:13:01 10° NE
BREEZE-M DEB (TANK) 2.7 20:06:21 10° NW 20:08:17 40° N 20:08:17 40° N
ATLAS 2AS CENTAUR R/B 4.0 20:01:07 10° WSW 20:08:44 49° NW 20:16:13 10° NNE
Cosmos 1825 3.7 20:06:00 10° NNW 20:09:25 33° W 20:11:58 15° SSW
ARIANE 5 R/B 3.0 20:09:19 42° E 20:09:53 44° ENE 20:14:04 10° N
Ariane Rocket 4.3 20:07:44 10° SSW 20:12:21 36° W 20:17:01 10° NNW
Timation 2 Rocket 4.3 20:10:14 28° SSE 20:13:19 47° ESE 20:19:22 10° NE
RESURS DK-1 4.2 20:17:56 10° WSW 20:21:38 31° NW 20:25:22 10° N
Landsat 7 4.0 20:20:37 37° S 20:22:26 69° WSW 20:27:12 10° NNW
USA 245 3.1 20:24:37 81° E 20:24:42 81° ENE 20:28:12 10° N
Genesis I 4.3 20:21:39 10° NNW 20:25:22 35° NE 20:25:22 35° NE
Cosmos-2242 3.0 20:25:50 64° E 20:25:50 64° E 20:30:01 10° NNE
Meteor 2-16 Rocket 4.5 20:21:44 10° N 20:27:50 61° ENE 20:29:25 47° SE
Cosmos 1655 Rocket 3.9 20:29:05 10° N 20:35:25 87° W 20:37:46 41° S
SL-16 R/B 2.9 20:31:40 10° NNW 20:37:00 39° NE 20:37:53 37° ENE
Cosmos 1980 3.7 20:32:38 10° NNW 20:38:19 75° WSW 20:39:45 51° S
Cosmos 2151 3.3 20:40:45 10° NNW 20:45:00 61° W 20:45:17 59° WSW
COSMOS 2428 4.4 20:42:05 10° NW 20:46:43 26° WSW 20:49:49 16° SW
Cosmos 2344 4.4 20:39:51 10° WSW 20:47:03 50° NW 20:54:52 10° NNE
Meteor 2-3 Rocket 3.7 20:41:24 10° NNW 20:47:12 84° W 20:48:26 57° S
USA 215 3.2 20:45:38 50° SE 20:47:31 80° SW 20:54:05 10° NW
Meteor 1-27 4.1 20:47:48 63° SSE 20:48:42 76° E 20:54:30 10° NNE
ATLAS 3B R/B 3.6 20:43:40 10° NW 20:50:14 42° WSW 20:53:12 29° SSW
Resurs 01 Rocket 3.6 20:50:18 18° SW 20:52:14 24° W 20:55:53 10° NW
ERS-1 Rocket 2.8 20:54:40 82° ESE 20:54:46 83° ENE 20:59:49 10° NNW
Cosmos 407 Rocket 3.9 20:53:35 26° SW 20:56:22 58° WNW 21:01:30 10° NNE
Cosmos 2219 Rocket 4.5 20:56:03 10° WNW 20:59:30 17° W 21:02:57 10° SW
Okean 3 Rocket 3.9 20:55:30 10° N 20:59:21 62° NNE 20:59:21 62° NNE
CARTOSAT-1 4.1 21:04:22 55° WNW 21:04:22 55° WNW 21:08:15 10° NNW
Cosmos 1766 Rocket 4.1 21:00:03 10° N 21:03:29 55° N 21:03:29 55° N
Cosmos 1633 4.4 21:01:30 10° NNW 21:04:10 27° WNW 21:04:10 27° WNW
Meteor 2-15 4.3 21:09:37 67° E 21:09:37 67° E 21:15:33 10° NNE
Cosmos 1954 Rocket 4.1 21:12:17 69° NNE 21:12:17 69° NNE 21:16:50 10° NNE
Lacrosse 5 rocket 4.1 21:09:04 10° NNW 21:11:45 16° N 21:14:12 11° NE
COSMOS 2455 3.0 21:18:15 59° ENE 21:18:15 59° ENE 21:23:15 10° NE
SPOT 5 3.3 21:19:30 53° WNW 21:19:30 53° WNW 21:23:32 10° NNW
Cosmos 2237 Rocket 3.3 21:21:57 10° NW 21:26:54 32° WSW 21:27:26 32° WSW
SeaSat 1 4.2 21:22:48 10° NE 21:24:38 22° NE 21:24:38 22° NE
Terra 2.4 21:28:59 55° NW 21:28:59 55° NW 21:32:53 10° NNW
Timation 1 Rocket 4.3 21:33:37 81° NNW 21:33:37 81° NNW 21:39:25 10° NNE
Cosmos 2082 3.9 21:39:13 67° N 21:39:13 67° N 21:44:10 10° NNE
Cosmos 2263 Rocket 4.0 21:42:46 20° NE 21:42:46 20° NE 21:44:43 10° NE
Cosmos 2227 Rocket 3.3 21:38:45 26° WSW 21:41:26 42° WNW 21:46:48 10° NNE
Cosmos 2297 Rocket 3.9 21:44:09 10° WSW 21:49:04 30° NW 21:54:01 10° N
Cosmos 841 Rocket 4.5 21:47:42 10° NNW 21:51:30 41° NNE 21:51:30 41° NNE
Cosmos 1745 Rocket 4.2 21:50:58 10° N 21:56:33 62° NE 21:56:33 62° NE
NOSS 3-1 (A) 4.5 21:55:08 10° NNW 22:02:25 54° NE 22:04:04 48° E
Cosmos 1763 Rocket 4.5 21:59:32 10° NNW 22:02:58 41° NW 22:02:58 41° NW
S3M 4.2 22:08:54 65° NNE 22:08:54 65° NNE 22:14:21 10° N
SL-16 R/B 3.6 22:15:58 10° NW 22:19:46 30° W 22:19:46 30° W
NOSS 3-1 (C) 4.0 22:21:05 10° NW 22:28:42 83° SW 22:28:42 83° SW
Cosmos 1943 4.2 22:45:21 10° NNW 22:48:59 41° NNW 22:48:59 41° NNW
Lacrosse 5 rocket 3.9 22:48:02 10° NW 22:49:47 21° NNW 22:49:47 21° NNW
SeaSat 1 4.2 23:00:41 10° N 23:04:24 28° NW 23:04:24 28° NW
Cosmos 2263 Rocket 3.5 23:24:25 34° NW 23:24:25 34° NW 23:28:43 10° NNE
USA 281 3.4 23:33:03 68° NNE 23:33:03 68° NNE 23:38:52 10° NNW
Cosmos 1844 Rocket 3.9 23:39:31 37° NE 23:39:31 37° NE 23:42:51 10° NNE
Cosmos 2074 Rocket 4.5 23:38:30 10° N 23:43:22 56° NNW 23:43:22 56° NNW
SJ 16-02 4.2 23:56:01 10° ENE 23:56:01 10° ENE 23:56:11 10° ENE
